QPF
0.02 0.03 0.00 0.00 0.01 0.00 0.00 0.00 0.00 0.00 0.00 0.00 0.00 0.00 0.01 0.00 0.00 0.00 0.00 0.00 0.01 0.01
0.00 0.00 0.00 0.00 0.01 0.01 0.00 0.00 0.00 0.00 0.00 0.00 0.02 0.03 0.00 0.00 0.01 0.01 0.00 0.00 0.00 0.02
0.00 0.00 0.00 0.00 0.00 0.04 0.02 0.00 0.00 0.00 0.03 0.04 0.02 0.02 0.01 0.00 0.00 0.00 0.00 0.00 0.00 0.00
0.00 0.00 0.00 0.00 0.01 0.04 0.04 0.01 0.00 0.00 0.00 0.01 0.02 0.05 0.02 0.01 0.01 0.00 0.00 0.00 0.00 0.00
0.01 0.00 0.00 0.00 0.00 0.01 0.07 0.07 0.02 0.00 0.02 0.07 0.03 0.04 0.02 0.01 0.00 0.00 0.00 0.00 0.00 0.00
0.01 0.00 0.00 0.00 0.00 0.00 0.01 0.06 0.03 0.00 0.02 0.09 0.05 0.03 0.03 0.02 0.01 0.00 0.00 0.00 0.00 0.00
0.24 0.18 0.04 0.03 0.01 0.00 0.00 0.01 0.01 0.00 0.00 0.00 0.01 0.00 0.00 0.01 0.00 0.00 0.00 0.00 0.00 0.00
0.33 0.36 0.34 0.45 0.32 0.14 0.06 0.03 0.08 0.08 0.07 0.02 0.00 0.00 0.00 0.00 0.01 0.02 0.02 0.00 0.00 0.00
0.20 0.15 0.16 0.24 0.30 0.31 0.23 0.15 0.16 0.15 0.10 0.03 0.00 0.00 0.00 0.00 0.01 0.02 0.04 0.03 0.03 0.02
0.19 0.47 0.41 0.23 0.22 0.32 0.26 0.18 0.16 0.11 0.09 0.05 0.02 0.00 0.00 0.00 0.00 0.00 0.00 0.00 0.01 0.02
0.15 0.19 0.21 0.18 0.22 0.16 0.10 0.07 0.14 0.17 0.13 0.11 0.11 0.07 0.01 0.00 0.02 0.00 0.00 0.00 0.00 0.00
0.06 0.08 0.06 0.05 0.10 0.08 0.06 0.11 0.11 0.11 0.12 0.19 0.12 0.11 0.09 0.08 0.04 0.01 0.00 0.02 0.01 0.00
0.00 0.00 0.00 0.00 0.03 0.12 0.50 0.51 0.76 0.39 0.28 0.35 0.40 0.40 0.31 0.21 0.16 0.11 0.06 0.21 0.07 0.03
0.00 0.00 0.00 0.00 0.00 0.13 0.48 0.55 1.12 1.05 0.64 0.36 0.21 0.19 0.16 0.13 0.07 0.04 0.03 0.09 0.05 0.09
MSLP
1015.60 1016.13 1016.57 1016.58 1016.86 1017.02 1016.97 1016.94 1016.92 1017.23 1017.56 1017.68 1017.81 1017.94 1017.94 1018.02 1018.10 1018.31 1018.42 1018.54 1018.74 1018.95
1015.05 1015.44 1015.89 1016.23 1016.27 1016.57 1016.58 1016.61 1016.76 1016.81 1017.40 1017.47 1017.52 1017.70 1017.90 1018.03 1017.92 1018.00 1018.03 1018.37 1018.52 1018.74
1014.45 1014.84 1015.35 1015.74 1016.08 1016.20 1016.23 1016.43 1016.54 1016.74 1016.97 1017.26 1017.36 1017.63 1017.97 1018.08 1017.92 1017.94 1018.01 1018.16 1018.24 1018.36
1013.80 1014.35 1014.91 1015.26 1015.52 1015.79 1016.00 1016.14 1016.40 1016.49 1016.69 1016.90 1017.14 1017.29 1017.59 1017.73 1017.83 1017.99 1017.91 1017.90 1017.99 1017.83
1013.18 1013.81 1014.33 1014.52 1014.74 1015.22 1015.35 1015.49 1015.91 1016.07 1016.40 1016.62 1016.84 1017.02 1017.25 1017.70 1017.63 1017.85 1017.86 1017.70 1017.81 1017.75
1012.82 1013.01 1013.49 1013.95 1014.23 1014.50 1014.94 1015.30 1015.40 1015.62 1015.90 1016.55 1016.90 1016.94 1017.16 1017.09 1017.06 1017.24 1017.29 1017.44 1017.57 1017.50
1012.13 1012.17 1012.38 1013.07 1013.62 1014.13 1014.54 1014.93 1015.14 1015.28 1015.46 1015.75 1016.08 1016.36 1016.62 1016.81 1016.83 1016.76 1016.66 1016.90 1016.98 1016.95
1011.65 1011.82 1012.48 1013.41 1013.43 1013.80 1014.31 1014.44 1014.69 1014.98 1015.25 1015.40 1015.36 1015.60 1015.85 1016.14 1016.16 1016.34 1016.31 1016.47 1016.60 1016.51
1011.33 1011.67 1012.60 1013.10 1012.97 1013.69 1013.87 1014.19 1014.82 1015.22 1014.89 1015.06 1014.85 1014.85 1014.98 1015.17 1015.53 1015.71 1015.92 1016.12 1016.10 1016.21
1010.98 1011.50 1011.87 1012.28 1012.65 1012.87 1012.98 1013.61 1014.06 1014.60 1014.63 1014.34 1014.26 1014.18 1014.24 1014.47 1014.82 1015.15 1015.31 1015.44 1015.46 1015.63
1010.78 1011.17 1011.46 1011.87 1011.51 1011.62 1013.15 1013.30 1013.77 1014.05 1013.99 1013.83 1013.69 1013.76 1013.77 1013.91 1014.36 1014.60 1014.65 1014.74 1014.74 1014.87
1011.02 1011.18 1011.32 1011.47 1011.84 1012.63 1013.17 1013.22 1013.41 1013.19 1013.14 1013.30 1013.89 1013.99 1014.07 1014.05 1014.17 1014.30 1014.29 1014.15 1014.21 1014.39
1011.29 1011.52 1011.71 1011.91 1012.24 1012.61 1012.86 1012.65 1012.22 1012.42 1012.81 1013.18 1013.90 1014.21 1014.21 1014.07 1013.79 1013.91 1014.00 1013.99 1014.15 1014.24
1011.50 1011.70 1011.78 1012.06 1012.29 1012.57 1012.56 1012.29 1013.01 1012.14 1012.59 1013.29 1014.22 1014.29 1014.40 1014.32 1013.87 1013.83 1013.90 1013.87 1014.46 1014.77
Thickness
5763 5760 5757 5759 5758 5758 5763 5766 5766 5766 5765 5767 5767 5767 5768 5772 5776 5777 5776 5776 5773 5772
5766 5762 5760 5759 5760 5758 5762 5766 5766 5766 5765 5765 5766 5767 5766 5768 5773 5775 5777 5773 5774 5771
5769 5765 5761 5760 5757 5759 5762 5763 5763 5764 5766 5766 5766 5763 5763 5765 5769 5770 5770 5770 5772 5773
5768 5765 5760 5757 5758 5759 5760 5760 5758 5760 5763 5763 5763 5764 5763 5763 5764 5764 5766 5768 5768 5771
5768 5765 5762 5760 5760 5759 5762 5763 5759 5759 5758 5758 5760 5761 5760 5758 5762 5758 5761 5765 5765 5766
5763 5764 5761 5758 5759 5761 5759 5759 5760 5760 5758 5753 5752 5753 5755 5758 5760 5759 5760 5760 5761 5763
5765 5766 5765 5762 5756 5754 5756 5755 5756 5757 5757 5755 5753 5753 5753 5754 5756 5759 5760 5761 5761 5763
5761 5754 5753 5742 5749 5748 5751 5753 5752 5751 5750 5752 5755 5755 5754 5752 5754 5756 5757 5758 5759 5761
5756 5756 5747 5746 5749 5742 5744 5746 5743 5741 5745 5746 5752 5755 5755 5755 5753 5753 5754 5755 5757 5757
5752 5749 5746 5744 5742 5742 5741 5741 5740 5738 5741 5746 5751 5753 5756 5756 5753 5751 5753 5754 5755 5755
5749 5745 5744 5740 5744 5732 5732 5732 5730 5730 5736 5741 5746 5749 5751 5752 5750 5749 5751 5753 5755 5755
5743 5742 5740 5738 5735 5727 5722 5722 5722 5726 5733 5736 5737 5739 5740 5743 5745 5745 5746 5750 5753 5753
5736 5732 5730 5728 5724 5720 5717 5717 5723 5721 5722 5725 5725 5727 5729 5733 5739 5740 5740 5744 5745 5744
5729 5727 5725 5720 5716 5713 5713 5712 5707 5714 5717 5713 5711 5715 5716 5720 5730 5730 5732 5736 5734 5733